SFR181 FAPE-FACT

Flight info

Callsign SFR181
Flight time 1h 3m
Altitude 34000
Route OKRAV UQ49 ESRUK UQ51 GETEN GETEN1B
Aircraft B738/M-SDE2E3FGHIRWXY/LB1

Departure

Time 2026-04-11 10:27
Airport Chief Dawid Stuurman International Airport (FAPE)

Arrival

Time 2026-04-11 11:31
Airport Cape Town International Airport (FACT)
Time Latitude Longitude Altitude Speed Heading
2026-04-11 09:56 -33.98523 25.61087 211 ft 0 kts 329°
2026-04-11 10:20 -33.98534 25.61095 218 ft 2 kts 332°
2026-04-11 10:20 -33.98549 25.61104 216 ft 2 kts 338°
2026-04-11 10:20 -33.98565 25.61110 211 ft 2 kts 356°
2026-04-11 10:21 -33.98580 25.61106 216 ft 2 kts 41°
2026-04-11 10:21 -33.98588 25.61095 212 ft 1 kts 56°
2026-04-11 10:21 -33.98589 25.61094 211 ft 0 kts 56°
2026-04-11 10:24 -33.98581 25.61110 211 ft 6 kts 58°
2026-04-11 10:25 -33.98542 25.61185 216 ft 15 kts 58°
2026-04-11 10:25 -33.98479 25.61308 213 ft 19 kts 58°
2026-04-11 10:25 -33.98417 25.61461 213 ft 21 kts 65°
2026-04-11 10:25 -33.98341 25.61613 214 ft 21 kts 58°
2026-04-11 10:26 -33.98266 25.61760 211 ft 20 kts 58°
2026-04-11 10:26 -33.98248 25.61889 215 ft 16 kts 127°
2026-04-11 10:26 -33.98341 25.61954 211 ft 16 kts 173°
2026-04-11 10:26 -33.98391 25.61924 214 ft 0 kts 236°
2026-04-11 10:27 -33.98408 25.61891 215 ft 19 kts 238°
2026-04-11 10:27 -33.98632 25.61458 212 ft 101 kts 238°
2026-04-11 10:27 -33.99134 25.60505 299 ft 160 kts 239°
2026-04-11 10:27 -33.99712 25.59365 1226 ft 158 kts 243°
2026-04-11 10:28 -33.99980 25.58064 2069 ft 162 kts 275°
2026-04-11 10:28 -33.99855 25.56598 2556 ft 192 kts 273°
2026-04-11 10:28 -33.99767 25.54871 2791 ft 221 kts 272°
2026-04-11 10:28 -33.99690 25.52961 3273 ft 236 kts 271°
2026-04-11 10:29 -33.99668 25.50887 3722 ft 256 kts 268°
2026-04-11 10:29 -33.99735 25.48736 4661 ft 257 kts 267°
2026-04-11 10:29 -33.99819 25.46578 5615 ft 259 kts 268°
2026-04-11 10:29 -33.99905 25.44395 6481 ft 263 kts 268°
2026-04-11 10:30 -33.99991 25.42183 7343 ft 265 kts 268°
2026-04-11 10:30 -34.00076 25.39950 8203 ft 268 kts 268°
2026-04-11 10:30 -34.00156 25.37698 9043 ft 271 kts 269°
2026-04-11 10:30 -34.00235 25.35406 9932 ft 275 kts 269°
2026-04-11 10:31 -34.00315 25.33076 10646 ft 285 kts 269°
2026-04-11 10:31 -34.00396 25.30576 10838 ft 311 kts 269°
2026-04-11 10:31 -34.00483 25.27875 11068 ft 333 kts 269°
2026-04-11 10:31 -34.00575 25.25042 11626 ft 342 kts 268°
2026-04-11 10:32 -34.00668 25.22163 12373 ft 345 kts 268°
2026-04-11 10:32 -34.00761 25.19268 13137 ft 347 kts 268°
2026-04-11 10:32 -34.00854 25.16347 13865 ft 351 kts 268°
2026-04-11 10:32 -34.00947 25.13393 14478 ft 355 kts 268°
2026-04-11 10:33 -34.01040 25.10393 15080 ft 360 kts 268°
2026-04-11 10:33 -34.01133 25.07363 15694 ft 364 kts 268°
2026-04-11 10:33 -34.01226 25.04300 16297 ft 368 kts 268°
2026-04-11 10:33 -34.01320 25.01202 16888 ft 372 kts 268°
2026-04-11 10:34 -34.01413 24.98076 17483 ft 375 kts 268°
2026-04-11 10:34 -34.01507 24.94917 18071 ft 379 kts 268°
2026-04-11 10:34 -34.01601 24.91729 18629 ft 382 kts 268°
2026-04-11 10:34 -34.01694 24.88510 19148 ft 385 kts 268°
2026-04-11 10:35 -34.01788 24.85282 19690 ft 387 kts 268°
2026-04-11 10:35 -34.01881 24.82025 20224 ft 390 kts 268°
2026-04-11 10:35 -34.01974 24.78755 20729 ft 392 kts 268°
2026-04-11 10:35 -34.02066 24.75451 21236 ft 395 kts 268°
2026-04-11 10:36 -34.02157 24.72173 21731 ft 398 kts 268°
2026-04-11 10:36 -34.02249 24.68827 22216 ft 401 kts 268°
2026-04-11 10:36 -34.02341 24.65457 22707 ft 403 kts 268°
2026-04-11 10:36 -34.02433 24.62070 23186 ft 406 kts 268°
2026-04-11 10:37 -34.02524 24.58660 23636 ft 409 kts 268°
2026-04-11 10:37 -34.02615 24.55223 24017 ft 412 kts 268°
2026-04-11 10:37 -34.02705 24.51765 24418 ft 413 kts 268°
2026-04-11 10:37 -34.02794 24.48304 24829 ft 414 kts 268°
2026-04-11 10:38 -34.02857 24.44829 25234 ft 415 kts 270°
2026-04-11 10:38 -34.02802 24.41346 25617 ft 417 kts 272°
2026-04-11 10:38 -34.02545 24.34339 26371 ft 420 kts 273°
2026-04-11 10:39 -34.02405 24.30819 26753 ft 421 kts 273°
2026-04-11 10:39 -34.02271 24.27297 27126 ft 422 kts 273°
2026-04-11 10:39 -34.02143 24.23756 27466 ft 424 kts 273°
2026-04-11 10:39 -34.02020 24.20198 27802 ft 425 kts 273°
2026-04-11 10:40 -34.01901 24.16634 28139 ft 426 kts 273°
2026-04-11 10:40 -34.01782 24.13058 28479 ft 428 kts 273°
2026-04-11 10:40 -34.01664 24.09483 28934 ft 426 kts 273°
2026-04-11 10:40 -34.01546 24.05936 29490 ft 422 kts 273°
2026-04-11 10:41 -34.01429 24.02413 30045 ft 418 kts 273°
2026-04-11 10:41 -34.01311 23.98921 30487 ft 416 kts 273°
2026-04-11 10:41 -34.01192 23.95436 30907 ft 414 kts 273°
2026-04-11 10:41 -34.01073 23.91983 31354 ft 411 kts 273°
2026-04-11 10:42 -34.00954 23.88549 31774 ft 409 kts 273°
2026-04-11 10:42 -34.00835 23.85130 32186 ft 407 kts 273°
2026-04-11 10:42 -34.00715 23.81738 32623 ft 404 kts 273°
2026-04-11 10:42 -34.00595 23.78374 33078 ft 401 kts 273°
2026-04-11 10:43 -34.00355 23.71692 33827 ft 398 kts 273°
2026-04-11 10:43 -34.00234 23.68366 34152 ft 397 kts 273°
2026-04-11 10:44 -33.99985 23.61635 34154 ft 406 kts 273°
2026-04-11 10:44 -33.99733 23.54884 34156 ft 404 kts 273°
2026-04-11 10:45 -33.99476 23.48096 34161 ft 401 kts 273°
2026-04-11 10:45 -33.99219 23.41404 34163 ft 399 kts 273°
2026-04-11 10:46 -33.98959 23.34774 34160 ft 398 kts 273°
2026-04-11 10:46 -33.98695 23.28079 34154 ft 397 kts 273°
2026-04-11 10:47 -33.98427 23.21377 34161 ft 405 kts 273°
2026-04-11 10:47 -33.98150 23.14571 34173 ft 414 kts 273°
2026-04-11 10:48 -33.97865 23.07627 34158 ft 415 kts 273°
2026-04-11 10:48 -33.97575 23.00682 34156 ft 415 kts 273°
2026-04-11 10:49 -33.97280 22.93703 34154 ft 414 kts 273°
2026-04-11 10:49 -33.96985 22.86821 34150 ft 413 kts 273°
2026-04-11 10:50 -33.96686 22.79927 34151 ft 412 kts 273°
2026-04-11 10:50 -33.96384 22.73038 34147 ft 411 kts 273°
2026-04-11 10:51 -33.96078 22.66171 34146 ft 410 kts 273°
2026-04-11 10:51 -33.95770 22.59374 34158 ft 410 kts 273°
2026-04-11 10:52 -33.95457 22.52521 34160 ft 409 kts 273°
2026-04-11 10:52 -33.95142 22.45685 34155 ft 409 kts 273°
2026-04-11 10:53 -33.94822 22.38861 34157 ft 408 kts 273°
2026-04-11 10:53 -33.94500 22.32052 34160 ft 407 kts 273°
2026-04-11 10:54 -33.94175 22.25258 34159 ft 406 kts 273°
2026-04-11 10:54 -33.93849 22.18522 34151 ft 405 kts 273°
2026-04-11 10:55 -33.93518 22.11766 34147 ft 404 kts 273°
2026-04-11 10:55 -33.93183 22.05024 34147 ft 403 kts 273°
2026-04-11 10:56 -33.92846 21.98302 34157 ft 402 kts 273°
2026-04-11 10:56 -33.92507 21.91596 34153 ft 400 kts 273°
2026-04-11 10:57 -33.92165 21.84912 34151 ft 400 kts 273°
2026-04-11 10:57 -33.91820 21.78241 34154 ft 399 kts 273°
2026-04-11 10:58 -33.91472 21.71579 34158 ft 398 kts 273°
2026-04-11 10:58 -33.91122 21.64930 34150 ft 398 kts 273°
2026-04-11 10:59 -33.90767 21.58289 34151 ft 397 kts 274°
2026-04-11 10:59 -33.90411 21.51674 34157 ft 396 kts 273°
2026-04-11 11:00 -33.90051 21.45063 34148 ft 396 kts 274°
2026-04-11 11:00 -33.89688 21.38458 34151 ft 395 kts 274°
2026-04-11 11:01 -33.89325 21.31911 34151 ft 394 kts 274°
2026-04-11 11:01 -33.89017 21.26406 34156 ft 393 kts 274°
2026-04-11 11:02 -33.88585 21.18771 34148 ft 393 kts 274°
2026-04-11 11:02 -33.88212 21.12220 34152 ft 392 kts 274°
2026-04-11 11:03 -33.87834 21.05664 34147 ft 392 kts 274°
2026-04-11 11:03 -33.87453 20.99114 34151 ft 392 kts 274°
2026-04-11 11:04 -33.87070 20.92583 34156 ft 391 kts 274°
2026-04-11 11:04 -33.86748 20.87151 34137 ft 390 kts 275°
2026-04-11 11:05 -33.86359 20.80640 34160 ft 390 kts 274°
2026-04-11 11:05 -33.85973 20.74224 34142 ft 372 kts 274°
2026-04-11 11:06 -33.85606 20.68169 34141 ft 359 kts 274°
2026-04-11 11:06 -33.85423 20.65179 33988 ft 359 kts 274°
2026-04-11 11:06 -33.85240 20.62194 33673 ft 354 kts 274°
2026-04-11 11:06 -33.85059 20.59256 33261 ft 350 kts 274°
2026-04-11 11:07 -33.84880 20.56348 32842 ft 347 kts 274°
2026-04-11 11:07 -33.84701 20.53467 32434 ft 345 kts 275°
2026-04-11 11:07 -33.84523 20.50599 32024 ft 343 kts 275°
2026-04-11 11:07 -33.84345 20.47747 31618 ft 341 kts 275°
2026-04-11 11:08 -33.84166 20.44910 31214 ft 339 kts 275°
2026-04-11 11:08 -33.83989 20.42091 30813 ft 338 kts 275°
2026-04-11 11:08 -33.83810 20.39265 30399 ft 338 kts 275°
2026-04-11 11:08 -33.83632 20.36447 29962 ft 337 kts 275°
2026-04-11 11:09 -33.83453 20.33643 29518 ft 336 kts 276°
2026-04-11 11:09 -33.83275 20.30847 29091 ft 334 kts 276°
2026-04-11 11:09 -33.83099 20.28107 28680 ft 332 kts 276°
2026-04-11 11:09 -33.82919 20.25307 28260 ft 331 kts 276°
2026-04-11 11:10 -33.82742 20.22560 27854 ft 329 kts 276°
2026-04-11 11:10 -33.82567 20.19863 27451 ft 327 kts 276°
2026-04-11 11:10 -33.82390 20.17136 27057 ft 326 kts 276°
2026-04-11 11:10 -33.82214 20.14426 26645 ft 324 kts 276°
2026-04-11 11:11 -33.82037 20.11727 26270 ft 324 kts 277°
2026-04-11 11:11 -33.81858 20.09015 25850 ft 326 kts 277°
2026-04-11 11:11 -33.81677 20.06287 25468 ft 332 kts 277°
2026-04-11 11:11 -33.81490 20.03471 25023 ft 341 kts 277°
2026-04-11 11:12 -33.81300 20.00626 24594 ft 342 kts 277°
2026-04-11 11:12 -33.81111 19.97778 24178 ft 341 kts 277°
2026-04-11 11:12 -33.80922 19.94934 23753 ft 341 kts 277°
2026-04-11 11:12 -33.80732 19.92093 23269 ft 341 kts 277°
2026-04-11 11:13 -33.80542 19.89255 22846 ft 339 kts 277°
2026-04-11 11:13 -33.80352 19.86434 22424 ft 337 kts 277°
2026-04-11 11:13 -33.80162 19.83630 22014 ft 336 kts 277°
2026-04-11 11:13 -33.79973 19.80839 21604 ft 334 kts 277°
2026-04-11 11:14 -33.79783 19.78062 21198 ft 333 kts 277°
2026-04-11 11:14 -33.79595 19.75297 20792 ft 330 kts 277°
2026-04-11 11:14 -33.79408 19.72551 20394 ft 329 kts 277°
2026-04-11 11:14 -33.79218 19.69811 19990 ft 329 kts 277°
2026-04-11 11:15 -33.79028 19.67074 19592 ft 329 kts 278°
2026-04-11 11:15 -33.78838 19.64338 19187 ft 329 kts 278°
2026-04-11 11:15 -33.78647 19.61595 18785 ft 329 kts 278°
2026-04-11 11:15 -33.78456 19.58861 18381 ft 329 kts 278°
2026-04-11 11:16 -33.78264 19.56124 17950 ft 328 kts 277°
2026-04-11 11:16 -33.78073 19.53405 17543 ft 326 kts 277°
2026-04-11 11:16 -33.77883 19.50700 17151 ft 323 kts 277°
2026-04-11 11:16 -33.77694 19.48018 16763 ft 321 kts 277°
2026-04-11 11:17 -33.77504 19.45349 16315 ft 321 kts 277°
2026-04-11 11:17 -33.77315 19.42688 16079 ft 314 kts 277°
2026-04-11 11:17 -33.77134 19.40120 16010 ft 302 kts 277°
2026-04-11 11:17 -33.76960 19.37658 15994 ft 290 kts 277°
2026-04-11 11:18 -33.76791 19.35291 15838 ft 280 kts 277°
2026-04-11 11:18 -33.76620 19.32933 15075 ft 288 kts 277°
2026-04-11 11:18 -33.76442 19.30522 14403 ft 289 kts 276°
2026-04-11 11:18 -33.76269 19.28153 13942 ft 286 kts 277°
2026-04-11 11:19 -33.76100 19.25761 13402 ft 283 kts 276°
2026-04-11 11:19 -33.75933 19.23458 13006 ft 279 kts 277°
2026-04-11 11:19 -33.75762 19.21137 12663 ft 279 kts 277°
2026-04-11 11:19 -33.75591 19.18781 12262 ft 279 kts 277°
2026-04-11 11:20 -33.75424 19.16494 11941 ft 279 kts 277°
2026-04-11 11:20 -33.75251 19.14174 11590 ft 279 kts 277°
2026-04-11 11:20 -33.75079 19.11851 11236 ft 278 kts 277°
2026-04-11 11:20 -33.74908 19.09536 10876 ft 278 kts 277°
2026-04-11 11:21 -33.74738 19.07220 10524 ft 279 kts 277°
2026-04-11 11:21 -33.74567 19.04911 10307 ft 274 kts 277°
2026-04-11 11:21 -33.74399 19.02643 10137 ft 268 kts 277°
2026-04-11 11:21 -33.74235 19.00442 10012 ft 261 kts 277°
2026-04-11 11:22 -33.74074 18.98283 9712 ft 259 kts 277°
2026-04-11 11:22 -33.73913 18.96132 9411 ft 258 kts 277°
2026-04-11 11:22 -33.73757 18.94064 9106 ft 258 kts 277°
2026-04-11 11:22 -33.73595 18.91917 8794 ft 257 kts 277°
2026-04-11 11:23 -33.73434 18.89784 8493 ft 257 kts 277°
2026-04-11 11:23 -33.73272 18.87647 8201 ft 258 kts 277°
2026-04-11 11:23 -33.73105 18.85480 7855 ft 261 kts 275°
2026-04-11 11:23 -33.73136 18.83298 7519 ft 263 kts 269°
2026-04-11 11:24 -33.73244 18.81092 7174 ft 266 kts 269°
2026-04-11 11:24 -33.73351 18.78888 7043 ft 259 kts 268°
2026-04-11 11:24 -33.73454 18.76774 6991 ft 248 kts 269°
2026-04-11 11:24 -33.73557 18.74686 6434 ft 255 kts 268°
2026-04-11 11:25 -33.73660 18.72564 5973 ft 254 kts 269°
2026-04-11 11:25 -33.73767 18.70456 5666 ft 253 kts 269°
2026-04-11 11:25 -33.73996 18.68366 5372 ft 254 kts 257°
2026-04-11 11:25 -33.74529 18.66354 5212 ft 248 kts 254°
2026-04-11 11:26 -33.75087 18.64438 4889 ft 244 kts 254°
2026-04-11 11:26 -33.75661 18.62521 4468 ft 243 kts 253°
2026-04-11 11:26 -33.76229 18.60615 4059 ft 242 kts 253°
2026-04-11 11:26 -33.76791 18.58719 3676 ft 241 kts 253°
2026-04-11 11:27 -33.77355 18.56828 3258 ft 239 kts 250°
2026-04-11 11:27 -33.78360 18.55301 3015 ft 236 kts 214°
2026-04-11 11:27 -33.79912 18.54889 2984 ft 223 kts 175°
2026-04-11 11:27 -33.81370 18.55285 2983 ft 215 kts 166°
2026-04-11 11:28 -33.82805 18.55782 2946 ft 216 kts 167°
2026-04-11 11:28 -33.84271 18.56265 2691 ft 219 kts 167°
2026-04-11 11:28 -33.85719 18.56730 2385 ft 208 kts 168°
2026-04-11 11:28 -33.87067 18.57161 2089 ft 193 kts 168°
2026-04-11 11:29 -33.89484 18.57928 1584 ft 167 kts 168°
2026-04-11 11:29 -33.90567 18.58275 1385 ft 156 kts 169°
2026-04-11 11:29 -33.91585 18.58598 1160 ft 147 kts 171°
2026-04-11 11:30 -33.92555 18.58909 971 ft 143 kts 170°
2026-04-11 11:30 -33.93532 18.59216 723 ft 145 kts 168°
2026-04-11 11:30 -33.94483 18.59534 514 ft 140 kts 168°
2026-04-11 11:30 -33.95406 18.59832 306 ft 136 kts 171°
2026-04-11 11:31 -33.96295 18.60116 161 ft 126 kts 171°
2026-04-11 11:31 -33.97035 18.60341 156 ft 89 kts 165°
2026-04-11 11:31 -33.97493 18.60482 149 ft 46 kts 165°
2026-04-11 11:31 -33.97730 18.60554 153 ft 32 kts 179°
2026-04-11 11:32 -33.97758 18.60368 155 ft 22 kts 285°
2026-04-11 11:32 -33.97722 18.60215 156 ft 18 kts 295°
2026-04-11 11:32 -33.97624 18.60151 156 ft 16 kts 340°
2026-04-11 11:32 -33.97527 18.60102 156 ft 15 kts 335°
2026-04-11 11:33 -33.97432 18.60061 156 ft 14 kts 344°
2026-04-11 11:33 -33.97338 18.60030 156 ft 14 kts 345°
2026-04-11 11:33 -33.97248 18.60001 156 ft 13 kts 345°
2026-04-11 11:33 -33.97162 18.59975 156 ft 13 kts 346°
2026-04-11 11:34 -33.97077 18.59957 156 ft 12 kts 348°
2026-04-11 11:34 -33.96995 18.59931 156 ft 10 kts 345°
2026-04-11 11:34 -33.96980 18.59879 156 ft 7 kts 256°
2026-04-11 11:34 -33.96990 18.59834 156 ft 0 kts 254°